Year,Month,Day,Hour,Minute,Value (Times are PST for barometer in hPa)
2014,02,15,00,00,1012.09
2014,02,15,00,01,1012.09
2014,02,15,00,02,1012.06
2014,02,15,00,03,1012.06
2014,02,15,00,04,1012.02
2014,02,15,00,05,1011.95
2014,02,15,00,06,1011.95
2014,02,15,00,07,1011.92
2014,02,15,00,08,1011.95
2014,02,15,00,09,1012.02
2014,02,15,00,10,1011.99
2014,02,15,00,11,1012.06
2014,02,15,00,12,1011.99
2014,02,15,00,13,1012.02
2014,02,15,00,14,1012.02
2014,02,15,00,15,1011.99
2014,02,15,00,16,1012.02
2014,02,15,00,17,1011.99
2014,02,15,00,18,1011.99
2014,02,15,00,19,1011.89
2014,02,15,00,20,1011.99
2014,02,15,00,21,1012.02
2014,02,15,00,22,1011.95
2014,02,15,00,23,1011.99
2014,02,15,00,24,1011.95
2014,02,15,00,25,1011.99
2014,02,15,00,26,1011.95
2014,02,15,00,27,1011.95
2014,02,15,00,28,1011.99
2014,02,15,00,29,1012.02
2014,02,15,00,30,1011.99
2014,02,15,00,31,1011.99
2014,02,15,00,32,1011.99
2014,02,15,00,33,1011.99
2014,02,15,00,34,1011.95
2014,02,15,00,35,1011.95
2014,02,15,00,36,1011.95
2014,02,15,00,37,1011.99
2014,02,15,00,38,1012.02
2014,02,15,00,39,1012.02
2014,02,15,00,40,1011.95
2014,02,15,00,41,1012.02
2014,02,15,00,42,1012.02
2014,02,15,00,43,1012.02
2014,02,15,00,44,1012.02
2014,02,15,00,45,1012.06
2014,02,15,00,46,1011.99
2014,02,15,00,47,1011.99
2014,02,15,00,48,1011.99
2014,02,15,00,49,1011.99
2014,02,15,00,50,1011.99
2014,02,15,00,51,1012.02
2014,02,15,00,52,1011.99
2014,02,15,00,53,1011.99
2014,02,15,00,54,1011.99
2014,02,15,00,55,1011.95
2014,02,15,00,56,1011.95
2014,02,15,00,57,1011.95
2014,02,15,00,58,1011.95
2014,02,15,00,59,1011.92
2014,02,15,01,00,1011.85
2014,02,15,01,01,1011.85
2014,02,15,01,02,1011.82
2014,02,15,01,03,1011.85
2014,02,15,01,04,1011.85
2014,02,15,01,05,1011.85
2014,02,15,01,06,1011.85
2014,02,15,01,07,1011.85
2014,02,15,01,08,1011.82
2014,02,15,01,09,1011.75
2014,02,15,01,10,1011.75
2014,02,15,01,11,1011.68
2014,02,15,01,12,1011.68
2014,02,15,01,13,1011.58
2014,02,15,01,14,1011.55
2014,02,15,01,15,1011.48
2014,02,15,01,16,1011.48
2014,02,15,01,17,1011.45
2014,02,15,01,18,1011.51
2014,02,15,01,19,1011.45
2014,02,15,01,20,1011.41
2014,02,15,01,21,1011.41
2014,02,15,01,22,1011.41
2014,02,15,01,23,1011.41
2014,02,15,01,24,1011.45
2014,02,15,01,25,1011.51
2014,02,15,01,26,1011.48
2014,02,15,01,27,1011.45
2014,02,15,01,28,1011.45
2014,02,15,01,29,1011.45
2014,02,15,01,30,1011.41
2014,02,15,01,31,1011.35
2014,02,15,01,32,1011.31
2014,02,15,01,33,1011.31
2014,02,15,01,34,1011.28
2014,02,15,01,35,1011.28
2014,02,15,01,36,1011.24
2014,02,15,01,37,1011.28
2014,02,15,01,38,1011.24
2014,02,15,01,39,1011.24
2014,02,15,01,40,1011.28
2014,02,15,01,41,1011.35
2014,02,15,01,42,1011.35
2014,02,15,01,43,1011.31
2014,02,15,01,44,1011.38
2014,02,15,01,45,1011.31
2014,02,15,01,46,1011.28
2014,02,15,01,47,1011.35
2014,02,15,01,48,1011.35
2014,02,15,01,49,1011.24
2014,02,15,01,50,1011.28
2014,02,15,01,51,1011.31
2014,02,15,01,52,1011.31
2014,02,15,01,53,1011.24
2014,02,15,01,54,1011.18
2014,02,15,01,55,1011.14
2014,02,15,01,56,1011.11
2014,02,15,01,57,1011.07
2014,02,15,01,58,1011.14
2014,02,15,01,59,1011.11
2014,02,15,02,00,1011.14
2014,02,15,02,01,1011.04
2014,02,15,02,02,1011.04
2014,02,15,02,03,1011.04
2014,02,15,02,04,1011.04
2014,02,15,02,05,1010.98
2014,02,15,02,06,1011.04
2014,02,15,02,07,1010.97
2014,02,15,02,08,1011.01
2014,02,15,02,09,1010.94
2014,02,15,02,10,1010.97
2014,02,15,02,11,1010.97
2014,02,15,02,12,1010.97
2014,02,15,02,13,1010.97
2014,02,15,02,14,1011.01
2014,02,15,02,15,1011.01
2014,02,15,02,16,1011.04
2014,02,15,02,17,1011.01
2014,02,15,02,18,1011.11
2014,02,15,02,19,1011.07
2014,02,15,02,20,1010.97
2014,02,15,02,21,1011.04
2014,02,15,02,22,1011.04
2014,02,15,02,23,1011.04
2014,02,15,02,24,1011.01
2014,02,15,02,25,1010.97
2014,02,15,02,26,1011.01
2014,02,15,02,27,1011.01
2014,02,15,02,28,1011.01
2014,02,15,02,29,1011.01
2014,02,15,02,30,1010.97
2014,02,15,02,31,1010.97
2014,02,15,02,32,1011.01
2014,02,15,02,33,1011.01
2014,02,15,02,34,1010.97
2014,02,15,02,35,1010.97
2014,02,15,02,36,1011.07
2014,02,15,02,37,1011.18
2014,02,15,02,38,1011.04
2014,02,15,02,39,1011.01
2014,02,15,02,40,1010.94
2014,02,15,02,41,1010.87
2014,02,15,02,42,1010.87
2014,02,15,02,43,1010.87
2014,02,15,02,44,1010.84
2014,02,15,02,45,1010.84
2014,02,15,02,46,1010.87
2014,02,15,02,47,1010.87
2014,02,15,02,48,1010.91
2014,02,15,02,49,1010.91
2014,02,15,02,50,1010.94
2014,02,15,02,51,1010.97
2014,02,15,02,52,1011.01
2014,02,15,02,53,1011.01
2014,02,15,02,54,1011.04
2014,02,15,02,55,1011.11
2014,02,15,02,56,1011.11
2014,02,15,02,57,1011.11
2014,02,15,02,58,1011.11
2014,02,15,02,59,1011.11
2014,02,15,03,00,1011.04
2014,02,15,03,01,1011.04
2014,02,15,03,02,1011.04
2014,02,15,03,03,1011.07
2014,02,15,03,04,1011.07
2014,02,15,03,05,1011.01
2014,02,15,03,06,1011.07
2014,02,15,03,07,1010.94
2014,02,15,03,08,1011.03
2014,02,15,03,09,1011.07
2014,02,15,03,10,1011.01
2014,02,15,03,11,1011.01
2014,02,15,03,12,1011.01
2014,02,15,03,13,1010.88
2014,02,15,03,14,1010.87
2014,02,15,03,15,1010.87
2014,02,15,03,16,1010.84
2014,02,15,03,17,1010.80
2014,02,15,03,18,1010.77
2014,02,15,03,19,1010.80
2014,02,15,03,20,1010.71
2014,02,15,03,21,1010.70
2014,02,15,03,22,1010.70
2014,02,15,03,23,1010.74
2014,02,15,03,24,1010.74
2014,02,15,03,25,1010.74
2014,02,15,03,26,1010.74
2014,02,15,03,27,1010.70
2014,02,15,03,28,1010.67
2014,02,15,03,29,1010.63
2014,02,15,03,30,1010.57
2014,02,15,03,31,1010.57
2014,02,15,03,32,1010.57
2014,02,15,03,33,1010.53
2014,02,15,03,34,1010.46
2014,02,15,03,35,1010.40
2014,02,15,03,36,1010.33
2014,02,15,03,37,1010.26
2014,02,15,03,38,1010.26
2014,02,15,03,39,1010.26
2014,02,15,03,40,1010.23
2014,02,15,03,41,1010.23
2014,02,15,03,42,1010.23
2014,02,15,03,43,1010.10
2014,02,15,03,44,1010.16
2014,02,15,03,45,1010.09
2014,02,15,03,46,1010.09
2014,02,15,03,47,1010.16
2014,02,15,03,48,1010.13
2014,02,15,03,49,1010.16
2014,02,15,03,50,1010.16
2014,02,15,03,51,1010.13
2014,02,15,03,52,1010.09
2014,02,15,03,53,1010.13
2014,02,15,03,54,1010.03
2014,02,15,03,55,1010.19
2014,02,15,03,56,1010.09
2014,02,15,03,57,1010.13
2014,02,15,03,58,1010.19
2014,02,15,03,59,1010.13
2014,02,15,04,00,1010.09
2014,02,15,04,01,1010.13
2014,02,15,04,02,1010.09
2014,02,15,04,03,1010.03
2014,02,15,04,04,1010.15
2014,02,15,04,05,1010.16
2014,02,15,04,06,1010.13
2014,02,15,04,07,1010.13
2014,02,15,04,08,1010.09
2014,02,15,04,09,1010.09
2014,02,15,04,10,1009.99
2014,02,15,04,11,1009.99
2014,02,15,04,12,1009.96
2014,02,15,04,13,1009.96
2014,02,15,04,14,1009.92
2014,02,15,04,15,1009.89
2014,02,15,04,16,1009.89
2014,02,15,04,17,1009.86
2014,02,15,04,18,1009.82
2014,02,15,04,19,1009.79
2014,02,15,04,20,1009.79
2014,02,15,04,21,1009.75
2014,02,15,04,22,1009.72
2014,02,15,04,23,1009.75
2014,02,15,04,24,1009.69
2014,02,15,04,25,1009.79
2014,02,15,04,26,1009.79
2014,02,15,04,27,1009.79
2014,02,15,04,28,1009.79
2014,02,15,04,29,1009.75
2014,02,15,04,30,1009.66
2014,02,15,04,31,1009.74
2014,02,15,04,32,1009.75
2014,02,15,04,33,1009.72
2014,02,15,04,34,1009.79
2014,02,15,04,35,1009.72
2014,02,15,04,36,1009.75
2014,02,15,04,37,1009.69
2014,02,15,04,38,1009.69
2014,02,15,04,39,1009.62
2014,02,15,04,40,1009.69
2014,02,15,04,41,1009.72
2014,02,15,04,42,1009.69
2014,02,15,04,43,1009.69
2014,02,15,04,44,1009.65
2014,02,15,04,45,1009.69
2014,02,15,04,46,1009.69
2014,02,15,04,47,1009.72
2014,02,15,04,48,1009.69
2014,02,15,04,49,1009.75
2014,02,15,04,50,1009.69
2014,02,15,04,51,1009.72
2014,02,15,04,52,1009.72
2014,02,15,04,53,1009.75
2014,02,15,04,54,1009.72
2014,02,15,04,55,1009.72
2014,02,15,04,56,1009.69
2014,02,15,04,57,1009.65
2014,02,15,04,58,1009.62
2014,02,15,04,59,1009.53
2014,02,15,05,00,1009.48
2014,02,15,05,01,1009.43
2014,02,15,05,02,1009.36
2014,02,15,05,03,1009.26
2014,02,15,05,04,1009.12
2014,02,15,05,05,1009.04
2014,02,15,05,06,1009.04
2014,02,15,05,07,1008.97
2014,02,15,05,08,1008.94
2014,02,15,05,09,1009.07
2014,02,15,05,10,1009.08
2014,02,15,05,11,1009.20
2014,02,15,05,12,1009.25
2014,02,15,05,13,1009.35
2014,02,15,05,14,1009.22
2014,02,15,05,15,1009.25
2014,02,15,05,16,1009.11
2014,02,15,05,17,1009.11
2014,02,15,05,18,1009.18
2014,02,15,05,19,1009.11
2014,02,15,05,20,1009.14
2014,02,15,05,21,1009.11
2014,02,15,05,22,1009.11
2014,02,15,05,23,1009.18
2014,02,15,05,24,1009.18
2014,02,15,05,25,1009.14
2014,02,15,05,26,1009.08
2014,02,15,05,27,1009.01
2014,02,15,05,28,1008.97
2014,02,15,05,29,1009.01
2014,02,15,05,30,1009.04
2014,02,15,05,31,1009.01
2014,02,15,05,32,1009.04
2014,02,15,05,33,1008.97
2014,02,15,05,34,1008.91
2014,02,15,05,35,1008.84
2014,02,15,05,36,1008.81
2014,02,15,05,37,1008.74
2014,02,15,05,38,1008.77
2014,02,15,05,39,1008.70
2014,02,15,05,40,1008.70
2014,02,15,05,41,1008.70
2014,02,15,05,42,1008.67
2014,02,15,05,43,1008.67
2014,02,15,05,44,1008.67
2014,02,15,05,45,1008.67
2014,02,15,05,46,1008.67
2014,02,15,05,47,1008.67
2014,02,15,05,48,1008.64
2014,02,15,05,49,1008.64
2014,02,15,05,50,1008.60
2014,02,15,05,51,1008.57
2014,02,15,05,52,1008.60
2014,02,15,05,53,1008.51
2014,02,15,05,54,1008.57
2014,02,15,05,55,1008.57
2014,02,15,05,56,1008.60
2014,02,15,05,57,1008.60
2014,02,15,05,58,1008.64
2014,02,15,05,59,1008.60
2014,02,15,06,00,1008.51
2014,02,15,06,01,1008.50
2014,02,15,06,02,1008.50
2014,02,15,06,03,1008.50
2014,02,15,06,04,1008.47
2014,02,15,06,05,1008.50
2014,02,15,06,06,1008.47
2014,02,15,06,07,1008.43
2014,02,15,06,08,1008.47
2014,02,15,06,09,1008.43
2014,02,15,06,10,1008.37
2014,02,15,06,11,1008.47
2014,02,15,06,12,1008.40
2014,02,15,06,13,1008.33
2014,02,15,06,14,1008.23
2014,02,15,06,15,1008.20
2014,02,15,06,16,1008.04
2014,02,15,06,17,1007.96
2014,02,15,06,18,1008.02
2014,02,15,06,19,1007.93
2014,02,15,06,20,1007.99
2014,02,15,06,21,1007.93
2014,02,15,06,22,1007.82
2014,02,15,06,23,1007.89
2014,02,15,06,24,1007.96
2014,02,15,06,25,1007.87
2014,02,15,06,26,1007.96
2014,02,15,06,27,1007.86
2014,02,15,06,28,1007.79
2014,02,15,06,29,1007.66
2014,02,15,06,30,1007.69
2014,02,15,06,31,1007.59
2014,02,15,06,32,1007.62
2014,02,15,06,33,1007.55
2014,02,15,06,34,1007.55
2014,02,15,06,35,1007.52
2014,02,15,06,36,1007.55
2014,02,15,06,37,1007.46
2014,02,15,06,38,1007.38
2014,02,15,06,39,1007.38
2014,02,15,06,40,1007.35
2014,02,15,06,41,1007.32
2014,02,15,06,42,1007.21
2014,02,15,06,43,1007.28
2014,02,15,06,44,1007.18
2014,02,15,06,45,1007.15
2014,02,15,06,46,1007.11
2014,02,15,06,47,1007.18
2014,02,15,06,48,1007.15
2014,02,15,06,49,1007.05
2014,02,15,06,50,1006.98
2014,02,15,06,51,1007.01
2014,02,15,06,52,1006.94
2014,02,15,06,53,1007.01
2014,02,15,06,54,1007.01
2014,02,15,06,55,1006.91
2014,02,15,06,56,1006.81
2014,02,15,06,57,1006.74
2014,02,15,06,58,1006.67
2014,02,15,06,59,1006.67
2014,02,15,07,00,1006.64
2014,02,15,07,01,1006.57
2014,02,15,07,02,1006.54
2014,02,15,07,03,1006.50
2014,02,15,07,04,1006.44
2014,02,15,07,05,1006.47
2014,02,15,07,06,1006.50
2014,02,15,07,07,1006.47
2014,02,15,07,08,1006.41
2014,02,15,07,09,1006.44
2014,02,15,07,10,1006.37
2014,02,15,07,11,1006.40
2014,02,15,07,12,1006.40
2014,02,15,07,13,1006.44
2014,02,15,07,14,1006.44
2014,02,15,07,15,1006.47
2014,02,15,07,16,1006.40
2014,02,15,07,17,1006.37
2014,02,15,07,18,1006.37
2014,02,15,07,19,1006.37
2014,02,15,07,20,1006.40
2014,02,15,07,21,1006.33
2014,02,15,07,22,1006.37
2014,02,15,07,23,1006.37
2014,02,15,07,24,1006.28
2014,02,15,07,25,1006.20
2014,02,15,07,26,1006.13
2014,02,15,07,27,1006.13
2014,02,15,07,28,1006.10
2014,02,15,07,29,1006.03
2014,02,15,07,30,1006.06
2014,02,15,07,31,1006.10
2014,02,15,07,32,1005.86
2014,02,15,07,33,1005.77
2014,02,15,07,34,1005.76
2014,02,15,07,35,1005.76
2014,02,15,07,36,1005.76
2014,02,15,07,37,1005.72
2014,02,15,07,38,1005.76
2014,02,15,07,39,1005.72
2014,02,15,07,40,1005.72
2014,02,15,07,41,1005.72
2014,02,15,07,42,1005.69
2014,02,15,07,43,1005.83
2014,02,15,07,44,1005.76
2014,02,15,07,45,1005.83
2014,02,15,07,46,1005.73
2014,02,15,07,47,1005.83
2014,02,15,07,48,1005.70
2014,02,15,07,49,1005.76
2014,02,15,07,50,1005.72
2014,02,15,07,51,1005.72
2014,02,15,07,52,1005.66
2014,02,15,07,53,1005.69
2014,02,15,07,54,1005.66
2014,02,15,07,55,1005.62
2014,02,15,07,56,1005.53
2014,02,15,07,57,1005.33
2014,02,15,07,58,1005.32
2014,02,15,07,59,1005.22
2014,02,15,08,00,1005.22
2014,02,15,08,01,1005.25
2014,02,15,08,02,1005.22
2014,02,15,08,03,1005.15
2014,02,15,08,04,1005.15
2014,02,15,08,05,1005.11
2014,02,15,08,06,1005.18
2014,02,15,08,07,1005.18
2014,02,15,08,08,1005.22
2014,02,15,08,09,1005.22
2014,02,15,08,10,1005.25
2014,02,15,08,11,1005.25
2014,02,15,08,12,1005.28
2014,02,15,08,13,1005.18
2014,02,15,08,14,1005.18
2014,02,15,08,15,1005.08
2014,02,15,08,16,1005.05
2014,02,15,08,17,1005.01
2014,02,15,08,18,1005.05
2014,02,15,08,19,1005.08
2014,02,15,08,20,1005.01
2014,02,15,08,21,1005.01
2014,02,15,08,22,1005.05
2014,02,15,08,23,1005.01
2014,02,15,08,24,1005.07
2014,02,15,08,25,1004.98
2014,02,15,08,26,1005.01
2014,02,15,08,27,1004.98
2014,02,15,08,28,1004.88
2014,02,15,08,29,1004.84
2014,02,15,08,30,1004.81
2014,02,15,08,31,1004.72
2014,02,15,08,32,1004.67
2014,02,15,08,33,1004.64
2014,02,15,08,34,1004.57
2014,02,15,08,35,1004.50
2014,02,15,08,36,1004.47
2014,02,15,08,37,1004.44
2014,02,15,08,38,1004.37
2014,02,15,08,39,1004.37
2014,02,15,08,40,1004.40
2014,02,15,08,41,1004.47
2014,02,15,08,42,1004.40
2014,02,15,08,43,1004.37
2014,02,15,08,44,1004.40
2014,02,15,08,45,1004.37
2014,02,15,08,46,1004.28
2014,02,15,08,47,1004.23
2014,02,15,08,48,1004.27
2014,02,15,08,49,1004.20
2014,02,15,08,50,1004.20
2014,02,15,08,51,1004.17
2014,02,15,08,52,1004.17
2014,02,15,08,53,1004.17
2014,02,15,08,54,1004.13
2014,02,15,08,55,1004.13
2014,02,15,08,56,1004.13
2014,02,15,08,57,1004.06
2014,02,15,08,58,1004.10
2014,02,15,08,59,1004.06
2014,02,15,09,00,1004.00
2014,02,15,09,01,1004.00
2014,02,15,09,02,1004.00
2014,02,15,09,03,1003.96
2014,02,15,09,04,1003.96
2014,02,15,09,05,1003.93
2014,02,15,09,06,1003.90
2014,02,15,09,07,1003.86
2014,02,15,09,08,1003.83
2014,02,15,09,09,1003.83
2014,02,15,09,10,1003.83
2014,02,15,09,11,1003.83
2014,02,15,09,12,1003.79
2014,02,15,09,13,1003.83
2014,02,15,09,14,1003.76
2014,02,15,09,15,1003.76
2014,02,15,09,16,1003.73
2014,02,15,09,17,1003.66
2014,02,15,09,18,1003.62
2014,02,15,09,19,1003.52
2014,02,15,09,20,1003.52
2014,02,15,09,21,1003.46
2014,02,15,09,22,1003.46
2014,02,15,09,23,1003.42
2014,02,15,09,24,1003.42
2014,02,15,09,25,1003.39
2014,02,15,09,26,1003.35
2014,02,15,09,27,1003.35
2014,02,15,09,28,1003.26
2014,02,15,09,29,1003.29
2014,02,15,09,30,1003.22
2014,02,15,09,31,1003.15
2014,02,15,09,32,1003.15
2014,02,15,09,33,1002.98
2014,02,15,09,34,1002.95
2014,02,15,09,35,1002.98
2014,02,15,09,36,1002.78
2014,02,15,09,37,1002.85
2014,02,15,09,38,1002.78
2014,02,15,09,39,1002.85
2014,02,15,09,40,1002.78
2014,02,15,09,41,1002.74
2014,02,15,09,42,1002.74
2014,02,15,09,43,1002.65
2014,02,15,09,44,1002.57
2014,02,15,09,45,1002.57
2014,02,15,09,46,1002.61
2014,02,15,09,47,1002.54
2014,02,15,09,48,1002.61
2014,02,15,09,49,1002.57
2014,02,15,09,50,1002.54
2014,02,15,09,51,1002.51
2014,02,15,09,52,1002.41
2014,02,15,09,53,1002.37
2014,02,15,09,54,1002.37
2014,02,15,09,55,1002.37
2014,02,15,09,56,1002.41
2014,02,15,09,57,1002.44
2014,02,15,09,58,1002.41
2014,02,15,09,59,1002.41
2014,02,15,10,00,1002.34
2014,02,15,10,01,1002.34
2014,02,15,10,02,1002.30
2014,02,15,10,03,1002.30
2014,02,15,10,04,1002.24
2014,02,15,10,05,1002.20
2014,02,15,10,06,1002.13
2014,02,15,10,07,1002.03
2014,02,15,10,08,1001.93
2014,02,15,10,09,1001.93
2014,02,15,10,10,1001.90
2014,02,15,10,11,1001.83
2014,02,15,10,12,1001.83
2014,02,15,10,13,1001.83
2014,02,15,10,14,1001.80
2014,02,15,10,15,1001.83
2014,02,15,10,16,1001.80
2014,02,15,10,17,1001.80
2014,02,15,10,18,1001.76
2014,02,15,10,19,1001.80
2014,02,15,10,20,1001.66
2014,02,15,10,21,1001.63
2014,02,15,10,22,1001.52
2014,02,15,10,23,1001.56
2014,02,15,10,24,1001.52
2014,02,15,10,25,1001.52
2014,02,15,10,26,1001.49
2014,02,15,10,27,1001.52
2014,02,15,10,28,1001.49
2014,02,15,10,29,1001.42
2014,02,15,10,30,1001.46
2014,02,15,10,31,1001.39
2014,02,15,10,32,1001.36
2014,02,15,10,33,1001.32
2014,02,15,10,34,1001.25
2014,02,15,10,35,1001.22
2014,02,15,10,36,1001.19
2014,02,15,10,37,1001.22
2014,02,15,10,38,1001.19
2014,02,15,10,39,1001.12
2014,02,15,10,40,1001.08
2014,02,15,10,41,1001.02
2014,02,15,10,42,1001.02
2014,02,15,10,43,1001.02
2014,02,15,10,44,1000.95
2014,02,15,10,45,1000.98
2014,02,15,10,46,1000.95
2014,02,15,10,47,1000.88
2014,02,15,10,48,1000.88
2014,02,15,10,49,1000.92
2014,02,15,10,50,1000.82
2014,02,15,10,51,1000.85
2014,02,15,10,52,1000.76
2014,02,15,10,53,1000.78
2014,02,15,10,54,1000.71
2014,02,15,10,55,1000.71
2014,02,15,10,56,1000.71
2014,02,15,10,57,1000.75
2014,02,15,10,58,1000.71
2014,02,15,10,59,1000.68
2014,02,15,11,00,1000.61
2014,02,15,11,01,1000.55
2014,02,15,11,02,1000.54
2014,02,15,11,03,1000.51
2014,02,15,11,04,1000.48
2014,02,15,11,05,1000.48
2014,02,15,11,06,1000.48
2014,02,15,11,07,1000.48
2014,02,15,11,08,1000.44
2014,02,15,11,09,1000.44
2014,02,15,11,10,1000.37
2014,02,15,11,11,1000.32
2014,02,15,11,12,1000.34
2014,02,15,11,13,1000.14
2014,02,15,11,14,1000.14
2014,02,15,11,15,1000.17
2014,02,15,11,16,1000.17
2014,02,15,11,17,1000.20
2014,02,15,11,18,1000.24
2014,02,15,11,19,1000.17
2014,02,15,11,20,1000.10
2014,02,15,11,21,1000.17
2014,02,15,11,22,1000.10
2014,02,15,11,23,1000.14
2014,02,15,11,24,1000.17
2014,02,15,11,25,1000.17
2014,02,15,11,26,1000.10
2014,02,15,11,27,1000.07
2014,02,15,11,28,1000.03
2014,02,15,11,29,999.97
2014,02,15,11,30,999.93
2014,02,15,11,31,999.93
2014,02,15,11,32,999.87
2014,02,15,11,33,999.90
2014,02,15,11,34,999.90
2014,02,15,11,35,999.97
2014,02,15,11,36,1000.00
2014,02,15,11,37,1000.00
2014,02,15,11,38,999.93
2014,02,15,11,39,999.87
2014,02,15,11,40,999.83
2014,02,15,11,41,999.73
2014,02,15,11,42,999.66
2014,02,15,11,43,999.73
2014,02,15,11,44,999.56
2014,02,15,11,45,999.53
2014,02,15,11,46,999.46
2014,02,15,11,47,999.55
2014,02,15,11,48,999.56
2014,02,15,11,49,999.56
2014,02,15,11,50,999.56
2014,02,15,11,51,999.53
2014,02,15,11,52,999.59
2014,02,15,11,53,999.40
2014,02,15,11,54,999.36
2014,02,15,11,55,999.32
2014,02,15,11,56,999.22
2014,02,15,11,57,999.10
2014,02,15,11,58,999.19
2014,02,15,11,59,999.22
2014,02,15,12,00,999.15
2014,02,15,12,01,999.22
2014,02,15,12,02,999.00
2014,02,15,12,03,998.95
2014,02,15,12,04,998.92
2014,02,15,12,05,998.95
2014,02,15,12,06,998.88
2014,02,15,12,07,998.85
2014,02,15,12,08,998.85
2014,02,15,12,09,998.78
2014,02,15,12,10,998.78
2014,02,15,12,11,998.78
2014,02,15,12,12,998.75
2014,02,15,12,13,998.75
2014,02,15,12,14,998.78
2014,02,15,12,15,998.82
2014,02,15,12,16,998.75
2014,02,15,12,17,998.78
2014,02,15,12,18,998.62
2014,02,15,12,19,998.65
2014,02,15,12,20,998.51
2014,02,15,12,21,998.54
2014,02,15,12,22,998.51
2014,02,15,12,23,998.41
2014,02,15,12,24,998.44
2014,02,15,12,25,998.41
2014,02,15,12,26,998.27
2014,02,15,12,27,998.34
2014,02,15,12,28,998.24
2014,02,15,12,29,998.24
2014,02,15,12,30,998.21
2014,02,15,12,31,998.21
2014,02,15,12,32,998.24
2014,02,15,12,33,998.24
2014,02,15,12,34,998.10
2014,02,15,12,35,998.10
2014,02,15,12,36,998.01
2014,02,15,12,37,997.94
2014,02,15,12,38,997.94
2014,02,15,12,39,997.87
2014,02,15,12,40,997.80
2014,02,15,12,41,997.77
2014,02,15,12,42,997.77
2014,02,15,12,43,997.73
2014,02,15,12,44,997.77
2014,02,15,12,45,997.63
2014,02,15,12,46,997.63
2014,02,15,12,47,997.53
2014,02,15,12,48,997.56
2014,02,15,12,49,997.56
2014,02,15,12,50,997.56
2014,02,15,12,51,997.47
2014,02,15,12,52,997.50
2014,02,15,12,53,997.46
2014,02,15,12,54,997.33
2014,02,15,12,55,997.46
2014,02,15,12,56,997.36
2014,02,15,12,57,997.23
2014,02,15,12,58,997.19
2014,02,15,12,59,997.29
2014,02,15,13,00,997.20
2014,02,15,13,01,997.19
2014,02,15,13,02,997.19
2014,02,15,13,03,997.19
2014,02,15,13,04,997.16
2014,02,15,13,05,997.09
2014,02,15,13,06,997.02
2014,02,15,13,07,997.05
2014,02,15,13,08,996.99
2014,02,15,13,09,996.95
2014,02,15,13,10,996.89
2014,02,15,13,11,996.85
2014,02,15,13,12,996.89
2014,02,15,13,13,996.79
2014,02,15,13,14,996.78
2014,02,15,13,15,996.78
2014,02,15,13,16,996.75
2014,02,15,13,17,996.75
2014,02,15,13,18,996.72
2014,02,15,13,19,996.65
2014,02,15,13,20,996.65
2014,02,15,13,21,996.65
2014,02,15,13,22,996.65
2014,02,15,13,23,996.55
2014,02,15,13,24,996.48
2014,02,15,13,25,996.41
2014,02,15,13,26,996.41
2014,02,15,13,27,996.32
2014,02,15,13,28,996.31
2014,02,15,13,29,996.28
2014,02,15,13,30,996.31
2014,02,15,13,31,996.28
2014,02,15,13,32,996.28
2014,02,15,13,33,996.24
2014,02,15,13,34,996.21
2014,02,15,13,35,996.21
2014,02,15,13,36,996.21
2014,02,15,13,37,996.14
2014,02,15,13,38,996.11
2014,02,15,13,39,995.97
2014,02,15,13,40,995.90
2014,02,15,13,41,995.87
2014,02,15,13,42,995.87
2014,02,15,13,43,995.84
2014,02,15,13,44,995.80
2014,02,15,13,45,995.84
2014,02,15,13,46,995.84
2014,02,15,13,47,995.68
2014,02,15,13,48,995.67
2014,02,15,13,49,995.60
2014,02,15,13,50,995.56
2014,02,15,13,51,995.60
2014,02,15,13,52,995.60
2014,02,15,13,53,995.56
2014,02,15,13,54,995.50
2014,02,15,13,55,995.33
2014,02,15,13,56,995.23
2014,02,15,13,57,995.23
2014,02,15,13,58,995.11
2014,02,15,13,59,995.02
2014,02,15,14,00,994.96
2014,02,15,14,01,994.89
2014,02,15,14,02,994.85
2014,02,15,14,03,994.85
2014,02,15,14,04,994.85
2014,02,15,14,05,994.82
2014,02,15,14,06,994.79
2014,02,15,14,07,994.82
2014,02,15,14,08,994.79
2014,02,15,14,09,994.72
2014,02,15,14,10,994.62
2014,02,15,14,11,994.64
2014,02,15,14,12,994.48
2014,02,15,14,13,994.52
2014,02,15,14,14,994.48
2014,02,15,14,15,994.45
2014,02,15,14,16,994.45
2014,02,15,14,17,994.45
2014,02,15,14,18,994.48
2014,02,15,14,19,994.45
2014,02,15,14,20,994.38
2014,02,15,14,21,994.31
2014,02,15,14,22,994.35
2014,02,15,14,23,994.38
2014,02,15,14,24,994.28
2014,02,15,14,25,994.24
2014,02,15,14,26,994.14
2014,02,15,14,27,994.21
2014,02,15,14,28,994.11
2014,02,15,14,29,994.04
2014,02,15,14,30,994.11
2014,02,15,14,31,993.97
2014,02,15,14,32,993.94
2014,02,15,14,33,993.94
2014,02,15,14,34,993.97
2014,02,15,14,35,993.87
2014,02,15,14,36,993.84
2014,02,15,14,37,993.87
2014,02,15,14,38,993.84
2014,02,15,14,39,993.80
2014,02,15,14,40,993.80
2014,02,15,14,41,993.77
2014,02,15,14,42,993.70
2014,02,15,14,43,993.70
2014,02,15,14,44,993.53
2014,02,15,14,45,993.57
2014,02,15,14,46,993.47
2014,02,15,14,47,993.43
2014,02,15,14,48,993.47
2014,02,15,14,49,993.47
2014,02,15,14,50,993.40
2014,02,15,14,51,993.40
2014,02,15,14,52,993.40
2014,02,15,14,53,993.40
2014,02,15,14,54,993.33
2014,02,15,14,55,993.26
2014,02,15,14,56,993.23
2014,02,15,14,57,993.13
2014,02,15,14,58,993.16
2014,02,15,14,59,993.06
2014,02,15,15,00,993.06
2014,02,15,15,01,992.99
2014,02,15,15,02,992.92
2014,02,15,15,03,992.82
2014,02,15,15,04,992.96
2014,02,15,15,05,992.86
2014,02,15,15,06,992.79
2014,02,15,15,07,992.82
2014,02,15,15,08,992.69
2014,02,15,15,09,992.62
2014,02,15,15,10,992.42
2014,02,15,15,11,992.45
2014,02,15,15,12,992.48
2014,02,15,15,13,992.48
2014,02,15,15,14,992.38
2014,02,15,15,15,992.37
2014,02,15,15,16,992.21
2014,02,15,15,17,992.28
2014,02,15,15,18,992.21
2014,02,15,15,19,992.21
2014,02,15,15,20,992.14
2014,02,15,15,21,992.08
2014,02,15,15,22,992.08
2014,02,15,15,23,992.04
2014,02,15,15,24,992.04
2014,02,15,15,25,992.04
2014,02,15,15,26,992.04
2014,02,15,15,27,991.98
2014,02,15,15,28,991.98
2014,02,15,15,29,991.93
2014,02,15,15,30,991.84
2014,02,15,15,31,991.87
2014,02,15,15,32,991.64
2014,02,15,15,33,991.73
2014,02,15,15,34,991.57
2014,02,15,15,35,991.57
2014,02,15,15,36,991.43
2014,02,15,15,37,991.53
2014,02,15,15,38,991.47
2014,02,15,15,39,991.40
2014,02,15,15,40,991.36
2014,02,15,15,41,991.23
2014,02,15,15,42,991.23
2014,02,15,15,43,991.20
2014,02,15,15,44,991.16
2014,02,15,15,45,991.20
2014,02,15,15,46,991.09
2014,02,15,15,47,991.06
2014,02,15,15,48,991.06
2014,02,15,15,49,990.96
2014,02,15,15,50,990.96
2014,02,15,15,51,990.89
2014,02,15,15,52,990.86
2014,02,15,15,53,990.79
2014,02,15,15,54,990.69
2014,02,15,15,55,990.65
2014,02,15,15,56,990.65
2014,02,15,15,57,990.62
2014,02,15,15,58,990.52
2014,02,15,15,59,990.52
2014,02,15,16,00,990.45
2014,02,15,16,01,990.52
2014,02,15,16,02,990.42
2014,02,15,16,03,990.38
2014,02,15,16,04,990.42
2014,02,15,16,05,990.35
2014,02,15,16,06,990.35
2014,02,15,16,07,990.28